Showing default

TJS-4, 44637

Orbit data source: Space-Track

TJS-4, 44637 is a payload satellite owned by CASC (CN) in GEO that was launched on Thu, 17 Oct 2019 UTC via a CHANG ZHENG 3B launch vehicle from the Xichang Space Center, China (XSC). Payload-class satellites include a variety of spacecraft equipped with specific instruments for various scientific and technological missions. These include communications satellites like Starlink; space stations such as the ISS; scientific satellites like the Hubble; Earth observation satellites from companies like Planet Labs, Umbra, and HawkEye 360; GPS; miniature CubeSats for education and research; and military/defense satellites.

Not visible in the next 10 days
Identifier
44637, 2019-070A
Orbit
GEO
Country
Flag of CNCN / PRC
Related business
Manufacturer
CAST
Mission
Operational Defense Sigint
Bus & Motor
DFH-4?, DFH-4 LAE
Mass
~4,000 kg wet, ~2,500 kg dry
Launch date (UTC)
2019-10-17 (7 years ago)
Launch vehicle
CHANG ZHENG 3B
Launch site
Xichang Space Center, China (XSC)
Object type
Payload
Rocket body
Debris
Shape & HBR
Box + 2 Pan + 1 Dish, Unknown HBR
Radar Cross Section
35.403 m², Large (>1 m²)

Expand to show TLE details & history
Last TLE update: 22 hours ago

TLE from 22 hours ago
0 TJS-4
1 44637U 19070A   26194.79143211 -.00000174  00000-0  00000+0 0  9993
2 44637   0.0805  87.0954 0003153 320.8189 252.1810  1.00269260 24804
Epoch: 2026-07-13T18:59Z
TLE epoch observation values (Epoch: 2026-07-13T18:59:39.734Z)
Latitude
-0.06688°
Longitude
83.48939°
Altitude
35,790.915 km
Speed
3.074 km/s
True Right ascension
20h 00m 18s
True Declination
0° 04' 01"
Sunlit
Object was in daylight at epoch
Visualization orbit readout
Latitude
Unknown
Longitude
Unknown
Altitude
Unknown
Speed
Unknown
Apparent Right ascension
Unknown
Apparent Declination
Unknown
Sunlit
N/A
Visualization observer readout
Local Sidereal Time
05:24:34
Azimuth
Unknown
Elevation
Unknown
Doppler factor
Unknown
Orbital elements
Apogee altitude
35,801.668 km
Perigee altitude
35,775.078 km
Semi-major axis
42,166.51 km
Eccentricity
0.00032
Inclination
0.0805°
RAAN
87.0954°
Arg. of periapsis
320.8189°
True anomaly
252.14661°
Mean anomaly
252.181°
Eccentric anomaly
252.1638°
Mean motion
0.25066 °/min
Orbital period
1,436.19 mins
BSTAR
0
Loading maneuver chart data...
Computing Atmospheric mass density...
Loading historical data...
Loading historical data...
Loading historical data...
Loading historical data...
Loading historical data...
Loading historical data...
Loading historical data...
Other satellites on launch #70 in the year 2019 (2019-10-17 UTC)

Documentation

Showing up to 5 results
|